Location: Kolin
(50.0330°N, 15.2000°E)
Time: 10:31:19
(UTC+02:00)

ISS - Pass Details

Date: 19 May 2021
Orbit: 417 x 422 km, 51.6° (Epoch: 13 June)

Event Time Altitude Azimuth Distance (km) Brightness Sun altitude
Rises 02:07:02 0° 287° (WNW) 2,372 0.1 -18.4°
Reaches altitude 10° 02:09:13 10° 280° (W) 1,506 -1.0 -18.3°
Enters shadow 02:09:22 11° 279° (W) 1,444 -1.1 -18.3°
